FENGYUN 1C DEB

Satellite information

Favourite Embed

Satellite Type and Status

DEBRISIN ORBIT

Key statistics

Satellite FENGYUN 1C DEB at a glance.

Uptime

9715

Days in orbit

Revolutions

≈ 14.2

Per day

Orbit

SSO

Sun Synchronous Orbit

Inclination

98.7

Latest

Satellite identification and parameters

Extended collection of information and parameters for FENGYUN 1C DEB.

Object identification

Identified? True

Debris? True

Object name: FENGYUN 1C DEB

International designator: 1999-025EYS

Object number (NORAD): 45527

Object ID (CCSDS): 45527

Country: PEOPLES REPUBLIC OF CHINA (PRC)

Current information (Y/N): Y

RCS size: SMALL

Orbital parameters

Period: 101.087 minutes

Inclination: 98.7382 deg

SMA: 7188.281 km

Apoapsis: 849.848 km

Periapsis: 770.443 km

RAAN: 53.7549 deg

Eccentricy: 0.00552323

Argument of periapsis: 224.6574 deg

Mean anomaly: 135.015 deg

Mean motion: 14.24509001 rev/day

Mean motion (dot): 0.00005633 rev/day2

B* drag term: 0.0024085736 1/REarth

Two-line elements (TLE)

Creation date: Dec. 13, 2025, 5:47 p.m.

Reference frame: TEME

Reference center: EARTH

Epoch: Dec. 13, 2025, 3:15 a.m. UTC

TLE line 0: 0 FENGYUN 1C DEB

TLE line 1: 1 45527U 99025EYS 25347.13604651 .00005633 00000-0 24086-2 0 9994

TLE line 2: 2 45527 98.7382 53.7549 0055232 224.6574 135.0150 14.24509001395853

Live tracking on map

Real-time ground track for satellite FENGYUN 1C DEB.

In-orbit conjunctions

A list of the most updated potential collisions computed for object FENGYUN 1C DEB.

Target Orbit TCA Probability of collision Miss distance Type
COSMOS 1275 DEB LEO 2025-06-29 15:47:14 0.001111671 29.0 (m) DEBRIS
COSMOS 2360 LEO 2025-01-13 18:44:01 0.0001920425 309.0 (m) PAYLOAD
COSMOS 1275 DEB LEO 2024-12-12 16:46:40 0.0001868478 75.0 (m) DEBRIS
SL-16 R/B LEO 2024-11-09 19:49:00 0.0004614529 249.0 (m) ROCKET BODY
METEOR 2-8 DEB LEO 2024-06-17 20:05:31 0.0001609011 96.0 (m) DEBRIS

Associated space launch

Chinese polar orbiting meteorological satellite

FENGYUN 1C DEB was lifted into orbit during the mission ‘Long March 4B | Feng Yun 1C’, on board a Long March 4B space rocket.

The launch took place on May 10, 1999, 1:33 a.m. from Launch Complex 7.

For more information about the launch, click the button.

Launch to space Long March 4B | Feng Yun 1C
Long March 4B | Feng Yun 1C

Agency: N/A

Status: Launch Successful

Launch date: May 10, 1999, 1:33 a.m. UTC

Rocket: Long March 4B

Launch pad: Launch Complex 7

Location: Taiyuan Satellite Launch Center, People's Republic of China

...

Latest news about this satellite

There are no fresh news available about this satellite. Check back as we update our databases every day.


Newsletter sign-up

Weekly statistics, charts and insights to help you stay on top of the space industry.